Find Local Weather

World > North America > United States > Illinois

Bourbonnais, Illinois Regional Weather

Lat: 41.16N, Lon: 87.88W
Wx Zone: ILZ023
Warning FLW WEATHER ALERT - (More Info. Click Here) Warning
Feedback
Expires:201808202300;;966969
ASUS43 KLOT 202211
RWRIL 

ILLINOIS REGIONAL WEATHER ROUNDUP
NATIONAL WEATHER SERVICE CHICAGO/ROMEOVILLE IL
500 PM CDT MON AUG 20 2018

NOTE: "FAIR" INDICATES FEW OR NO CLOUDS BELOW 12,000 FEET WITH NO
SIGNIFICANT WEATHER AND/OR OBSTRUCTIONS TO VISIBILITY.

* THESE STATIONS ARE NOT UNDER NWS QUALITY CONTROL. THEY ALSO MAY NOT
  REPORT WEATHER SUCH AS PRECIPITATION OR FOG.


ILZ005-006-012>014-019>023-202300-
NORTHEAST ILLINOIS
  
CITY           SKY/WX    TMP DP  RH WIND       PRES   REMARKS
CHICAGO-OHARE  CLOUDY    76  71  85 E16       29.78F                  
CHICAGO-MIDWAY CLOUDY    78  73  84 E13       29.78F HX  81           
AURORA         PTSUNNY   78  71  79 E9        29.76F HX  80           
LANSING*       PTSUNNY   78  71  77 SE10G16   29.79F HX  81           
JOLIET*        FAIR      80  73  77 E12G18    29.76F HX  85           
WAUKEGAN       LGT RAIN  73  72  96 E14       29.80F FOG              
DUPAGE AIRPORT PTSUNNY   77  72  84 E10G23    29.76F HAZE             
KANKAKEE*      FAIR      80  71  72 SE9       29.77F HX  84           
WHEELING       CLOUDY    76  69  79 E8        29.80F                  
MORRIS*        FAIR      82  73  73 SE9       29.73F HX  87           
ROMEOVILLE*    CLOUDY    77  71  82 SE10      29.77F                  
NORTHERLY ISL    N/A     74  71  91 E20         N/A                   
$$


SKY/WX - Weather  TMP - Temperature  DP - Dewpoint  RH - Relative Humidity
WIND - Wind Direction/Speed PRES - Barometric Pressure